SWA421 KAUS-KPHX

Flight info

Callsign SWA421
Flight time 2h 16m
Altitude 36000
Route MUCKY3 MUCKY JCT ELP DRRVR PINNG1
Aircraft B737/M-SDE2E3FGHIRWXY/LB1

Departure

Time 2026-05-05 14:58
Airport Austin Bergstrom International Airport (KAUS)

Arrival

Time 2026-05-05 17:15
Airport Phoenix Sky Harbor International Airport (KPHX)
Time Latitude Longitude Altitude Speed Heading
2026-05-05 14:31 30.20172 -97.66507 526 ft 0 kts 352°
2026-05-05 14:49 30.20170 -97.66507 526 ft 2 kts 352°
2026-05-05 14:49 30.20145 -97.66504 526 ft 4 kts 352°
2026-05-05 14:50 30.20123 -97.66500 526 ft 3 kts 353°
2026-05-05 14:50 30.20099 -97.66502 526 ft 4 kts 38°
2026-05-05 14:50 30.20088 -97.66523 526 ft 4 kts 73°
2026-05-05 14:50 30.20084 -97.66538 526 ft 0 kts 73°
2026-05-05 14:53 30.20084 -97.66536 526 ft 1 kts 75°
2026-05-05 14:53 30.20089 -97.66510 526 ft 5 kts 81°
2026-05-05 14:53 30.20092 -97.66465 526 ft 6 kts 89°
2026-05-05 14:53 30.20090 -97.66421 526 ft 5 kts 101°
2026-05-05 14:54 30.20061 -97.66394 526 ft 6 kts 166°
2026-05-05 14:54 30.19993 -97.66391 526 ft 12 kts 178°
2026-05-05 14:54 30.19921 -97.66368 526 ft 11 kts 125°
2026-05-05 14:54 30.19915 -97.66285 526 ft 10 kts 87°
2026-05-05 14:55 30.19916 -97.66202 526 ft 10 kts 89°
2026-05-05 14:55 30.19918 -97.66121 526 ft 10 kts 88°
2026-05-05 14:55 30.19920 -97.66043 526 ft 10 kts 89°
2026-05-05 14:55 30.19958 -97.65990 526 ft 9 kts 13°
2026-05-05 14:56 30.20023 -97.65991 526 ft 10 kts 358°
2026-05-05 14:56 30.20109 -97.65993 526 ft 14 kts 358°
2026-05-05 14:56 30.20206 -97.65995 526 ft 14 kts 359°
2026-05-05 14:56 30.20295 -97.65999 526 ft 11 kts 358°
2026-05-05 14:57 30.20360 -97.65976 526 ft 10 kts 54°
2026-05-05 14:57 30.20372 -97.65897 527 ft 10 kts 84°
2026-05-05 14:57 30.20373 -97.65820 528 ft 8 kts 89°
2026-05-05 14:57 30.20330 -97.65788 527 ft 9 kts 180°
2026-05-05 14:58 30.20103 -97.65783 525 ft 66 kts 179°
2026-05-05 14:58 30.19422 -97.65765 527 ft 126 kts 179°
2026-05-05 14:58 30.18393 -97.65748 675 ft 159 kts 180°
2026-05-05 14:58 30.17279 -97.65735 1311 ft 161 kts 184°
2026-05-05 14:59 30.16170 -97.65737 2077 ft 161 kts 179°
2026-05-05 14:59 30.14964 -97.65666 2477 ft 188 kts 180°
2026-05-05 14:59 30.13590 -97.65874 2710 ft 211 kts 204°
2026-05-05 14:59 30.12498 -97.67038 3281 ft 223 kts 238°
2026-05-05 15:00 30.12009 -97.68720 4013 ft 227 kts 253°
2026-05-05 15:00 30.11743 -97.69953 4323 ft 243 kts 251°
2026-05-05 15:00 30.11168 -97.72526 5223 ft 254 kts 253°
2026-05-05 15:00 30.10955 -97.74559 6063 ft 261 kts 276°
2026-05-05 15:01 30.11602 -97.76534 6959 ft 265 kts 291°
2026-05-05 15:01 30.12407 -97.78462 7834 ft 268 kts 292°
2026-05-05 15:01 30.13224 -97.80414 8763 ft 270 kts 292°
2026-05-05 15:01 30.14042 -97.82393 9677 ft 275 kts 294°
2026-05-05 15:02 30.14863 -97.84406 10513 ft 282 kts 293°
2026-05-05 15:02 30.15730 -97.86559 10766 ft 310 kts 293°
2026-05-05 15:02 30.16675 -97.88928 11023 ft 334 kts 292°
2026-05-05 15:02 30.17663 -97.91415 11599 ft 345 kts 292°
2026-05-05 15:03 30.18670 -97.93954 12357 ft 349 kts 292°
2026-05-05 15:03 30.19671 -97.96487 13172 ft 352 kts 292°
2026-05-05 15:03 30.20687 -97.99058 14050 ft 352 kts 292°
2026-05-05 15:03 30.21705 -98.01641 14850 ft 352 kts 291°
2026-05-05 15:04 30.22721 -98.04226 15624 ft 354 kts 291°
2026-05-05 15:04 30.23744 -98.06830 16419 ft 357 kts 291°
2026-05-05 15:04 30.24773 -98.09452 17191 ft 359 kts 291°
2026-05-05 15:04 30.25811 -98.12097 17930 ft 362 kts 291°
2026-05-05 15:05 30.27904 -98.17437 19279 ft 366 kts 291°
2026-05-05 15:05 30.28922 -98.20131 19957 ft 365 kts 288°
2026-05-05 15:05 30.29641 -98.22945 20614 ft 364 kts 281°
2026-05-05 15:06 30.30196 -98.25808 21272 ft 365 kts 280°
2026-05-05 15:06 30.30738 -98.28650 21859 ft 368 kts 280°
2026-05-05 15:06 30.31291 -98.31549 22462 ft 369 kts 280°
2026-05-05 15:06 30.31849 -98.34458 23082 ft 371 kts 280°
2026-05-05 15:07 30.32413 -98.37377 23588 ft 374 kts 280°
2026-05-05 15:07 30.32986 -98.40330 24018 ft 376 kts 280°
2026-05-05 15:07 30.33561 -98.43290 24471 ft 378 kts 280°
2026-05-05 15:07 30.34140 -98.46267 24876 ft 380 kts 280°
2026-05-05 15:08 30.34723 -98.49265 25314 ft 381 kts 280°
2026-05-05 15:08 30.35300 -98.52237 25733 ft 383 kts 280°
2026-05-05 15:08 30.35893 -98.55294 26147 ft 385 kts 280°
2026-05-05 15:08 30.36474 -98.58293 26539 ft 388 kts 280°
2026-05-05 15:09 30.37072 -98.61386 26931 ft 390 kts 280°
2026-05-05 15:09 30.37657 -98.64412 27312 ft 391 kts 280°
2026-05-05 15:09 30.38251 -98.67495 27688 ft 393 kts 280°
2026-05-05 15:09 30.38848 -98.70594 28048 ft 395 kts 280°
2026-05-05 15:10 30.39447 -98.73707 28383 ft 397 kts 280°
2026-05-05 15:10 30.40048 -98.76832 28759 ft 398 kts 280°
2026-05-05 15:10 30.40647 -98.79950 29285 ft 395 kts 280°
2026-05-05 15:10 30.41240 -98.83043 29906 ft 391 kts 280°
2026-05-05 15:11 30.41826 -98.86103 30426 ft 388 kts 280°
2026-05-05 15:11 30.42409 -98.89149 30863 ft 387 kts 280°
2026-05-05 15:11 30.42992 -98.92192 31333 ft 385 kts 279°
2026-05-05 15:11 30.43570 -98.95210 31884 ft 382 kts 279°
2026-05-05 15:12 30.44142 -98.98197 32453 ft 378 kts 279°
2026-05-05 15:12 30.44710 -99.01170 32978 ft 376 kts 279°
2026-05-05 15:12 30.45083 -99.03125 33304 ft 374 kts 279°
2026-05-05 15:12 30.45643 -99.06065 33794 ft 372 kts 279°
2026-05-05 15:13 30.46386 -99.09967 34322 ft 370 kts 278°
2026-05-05 15:13 30.46753 -99.11902 34507 ft 372 kts 278°
2026-05-05 15:13 30.47308 -99.14833 34799 ft 372 kts 278°
2026-05-05 15:13 30.47863 -99.17761 35143 ft 371 kts 278°
2026-05-05 15:14 30.48416 -99.20683 35479 ft 370 kts 278°
2026-05-05 15:14 30.48968 -99.23603 35785 ft 371 kts 278°
2026-05-05 15:14 30.49522 -99.26547 35792 ft 376 kts 278°
2026-05-05 15:15 30.50632 -99.32438 35812 ft 374 kts 278°
2026-05-05 15:15 30.51731 -99.38274 35821 ft 368 kts 278°
2026-05-05 15:16 30.52819 -99.44081 35844 ft 368 kts 278°
2026-05-05 15:16 30.53904 -99.49889 35861 ft 368 kts 278°
2026-05-05 15:17 30.54989 -99.55707 35870 ft 369 kts 278°
2026-05-05 15:17 30.56071 -99.61527 35882 ft 369 kts 278°
2026-05-05 15:18 30.57145 -99.67321 35897 ft 370 kts 278°
2026-05-05 15:18 30.58225 -99.73158 35901 ft 370 kts 278°
2026-05-05 15:19 30.59304 -99.79001 35915 ft 370 kts 278°
2026-05-05 15:19 30.60430 -99.84850 35899 ft 371 kts 278°
2026-05-05 15:20 30.61694 -99.90676 35878 ft 372 kts 279°
2026-05-05 15:20 30.62969 -99.96495 35862 ft 372 kts 279°
2026-05-05 15:21 30.64230 -100.02317 35851 ft 371 kts 279°
2026-05-05 15:21 30.65472 -100.08100 35834 ft 371 kts 279°
2026-05-05 15:22 30.66717 -100.13926 35830 ft 371 kts 279°
2026-05-05 15:22 30.67956 -100.19743 35823 ft 371 kts 279°
2026-05-05 15:23 30.69193 -100.25564 35832 ft 371 kts 278°
2026-05-05 15:23 30.70428 -100.31397 35838 ft 372 kts 278°
2026-05-05 15:24 30.71663 -100.37236 35862 ft 372 kts 278°
2026-05-05 15:24 30.72887 -100.43039 35878 ft 372 kts 278°
2026-05-05 15:25 30.74116 -100.48875 35891 ft 372 kts 278°
2026-05-05 15:25 30.75342 -100.54715 35902 ft 372 kts 278°
2026-05-05 15:26 30.76566 -100.60557 35896 ft 372 kts 278°
2026-05-05 15:26 30.77792 -100.66429 35896 ft 374 kts 278°
2026-05-05 15:27 30.79020 -100.72324 35893 ft 375 kts 278°
2026-05-05 15:27 30.80249 -100.78232 35884 ft 375 kts 278°
2026-05-05 15:28 30.81471 -100.84119 35856 ft 374 kts 278°
2026-05-05 15:28 30.82686 -100.89986 35868 ft 372 kts 277°
2026-05-05 15:29 30.83886 -100.95798 35873 ft 372 kts 277°
2026-05-05 15:29 30.85088 -101.01637 35892 ft 370 kts 277°
2026-05-05 15:30 30.86282 -101.07445 35906 ft 368 kts 277°
2026-05-05 15:30 30.87469 -101.13238 35916 ft 367 kts 277°
2026-05-05 15:31 30.88650 -101.19020 35917 ft 366 kts 277°
2026-05-05 15:31 30.89827 -101.24792 35908 ft 366 kts 277°
2026-05-05 15:32 30.91001 -101.30566 35820 ft 367 kts 277°
2026-05-05 15:32 30.92168 -101.36316 35813 ft 367 kts 277°
2026-05-05 15:33 30.93341 -101.42112 35810 ft 368 kts 277°
2026-05-05 15:33 30.94516 -101.47932 35808 ft 369 kts 277°
2026-05-05 15:34 30.95690 -101.53760 35811 ft 370 kts 277°
2026-05-05 15:34 30.96865 -101.59606 35805 ft 371 kts 277°
2026-05-05 15:35 30.98038 -101.65457 35808 ft 371 kts 277°
2026-05-05 15:35 30.99212 -101.71324 35829 ft 372 kts 276°
2026-05-05 15:36 31.00384 -101.77202 35799 ft 372 kts 276°
2026-05-05 15:36 31.01556 -101.83090 35793 ft 372 kts 276°
2026-05-05 15:37 31.02713 -101.88919 35792 ft 371 kts 276°
2026-05-05 15:37 31.03872 -101.94770 35795 ft 370 kts 276°
2026-05-05 15:38 31.05024 -102.00606 35789 ft 369 kts 276°
2026-05-05 15:38 31.06171 -102.06427 35788 ft 368 kts 276°
2026-05-05 15:39 31.07313 -102.12239 35785 ft 367 kts 276°
2026-05-05 15:39 31.08450 -102.18043 35778 ft 367 kts 276°
2026-05-05 15:40 31.09584 -102.23844 35775 ft 366 kts 276°
2026-05-05 15:40 31.10707 -102.29604 35783 ft 366 kts 276°
2026-05-05 15:41 31.11833 -102.35396 35770 ft 366 kts 276°
2026-05-05 15:41 31.12957 -102.41191 35789 ft 366 kts 276°
2026-05-05 15:42 31.14079 -102.46986 35772 ft 366 kts 275°
2026-05-05 15:42 31.15197 -102.52776 35767 ft 365 kts 275°
2026-05-05 15:43 31.16312 -102.58569 35764 ft 365 kts 275°
2026-05-05 15:43 31.17425 -102.64364 35797 ft 365 kts 275°
2026-05-05 15:44 31.18534 -102.70158 35777 ft 365 kts 275°
2026-05-05 15:44 31.19642 -102.75953 35764 ft 365 kts 275°
2026-05-05 15:45 31.20745 -102.81743 35770 ft 365 kts 275°
2026-05-05 15:45 31.21845 -102.87529 35759 ft 365 kts 275°
2026-05-05 15:46 31.22942 -102.93315 35771 ft 365 kts 275°
2026-05-05 15:46 31.24035 -102.99098 35767 ft 364 kts 275°
2026-05-05 15:47 31.25126 -103.04885 35762 ft 364 kts 275°
2026-05-05 15:47 31.26208 -103.10634 35765 ft 364 kts 275°
2026-05-05 15:48 31.27293 -103.16418 35801 ft 364 kts 275°
2026-05-05 15:48 31.28376 -103.22206 35832 ft 364 kts 275°
2026-05-05 15:49 31.29456 -103.27994 35863 ft 364 kts 275°
2026-05-05 15:49 31.30533 -103.33780 35890 ft 364 kts 275°
2026-05-05 15:50 31.31602 -103.39537 35922 ft 364 kts 275°
2026-05-05 15:50 31.32674 -103.45327 35936 ft 364 kts 275°
2026-05-05 15:51 31.33743 -103.51119 35933 ft 364 kts 275°
2026-05-05 15:51 31.34810 -103.56909 35939 ft 364 kts 275°
2026-05-05 15:52 31.35874 -103.62707 35941 ft 364 kts 274°
2026-05-05 15:52 31.36937 -103.68510 35902 ft 364 kts 274°
2026-05-05 15:53 31.37997 -103.74309 35875 ft 364 kts 274°
2026-05-05 15:53 31.39052 -103.80099 35856 ft 363 kts 274°
2026-05-05 15:54 31.40104 -103.85886 35815 ft 363 kts 274°
2026-05-05 15:54 31.41145 -103.91628 35800 ft 363 kts 274°
2026-05-05 15:55 31.42190 -103.97414 35803 ft 363 kts 274°
2026-05-05 15:55 31.43232 -104.03196 35806 ft 363 kts 274°
2026-05-05 15:56 31.44271 -104.08979 35814 ft 363 kts 274°
2026-05-05 15:56 31.45311 -104.14776 35814 ft 364 kts 274°
2026-05-05 15:57 31.46347 -104.20575 35817 ft 364 kts 274°
2026-05-05 15:57 31.47208 -104.25399 35831 ft 364 kts 273°
2026-05-05 15:58 31.48409 -104.32151 35817 ft 364 kts 273°
2026-05-05 15:58 31.49272 -104.37017 35821 ft 364 kts 273°
2026-05-05 15:59 31.50293 -104.42787 35821 ft 363 kts 273°
2026-05-05 15:59 31.51316 -104.48589 35821 ft 363 kts 273°
2026-05-05 16:00 31.52336 -104.54383 35836 ft 363 kts 273°
2026-05-05 16:00 31.53353 -104.60184 35836 ft 363 kts 273°
2026-05-05 16:01 31.54370 -104.65995 35850 ft 364 kts 273°
2026-05-05 16:01 31.55379 -104.71785 35840 ft 364 kts 273°
2026-05-05 16:02 31.56393 -104.77614 35833 ft 365 kts 273°
2026-05-05 16:02 31.57405 -104.83446 35829 ft 365 kts 273°
2026-05-05 16:03 31.58415 -104.89281 35833 ft 365 kts 273°
2026-05-05 16:03 31.59421 -104.95104 35841 ft 365 kts 272°
2026-05-05 16:04 31.60423 -105.00930 35844 ft 364 kts 272°
2026-05-05 16:04 31.61421 -105.06748 35838 ft 363 kts 272°
2026-05-05 16:05 31.62412 -105.12545 35835 ft 362 kts 272°
2026-05-05 16:05 31.63394 -105.18303 35826 ft 361 kts 272°
2026-05-05 16:06 31.64378 -105.24089 35835 ft 361 kts 272°
2026-05-05 16:06 31.65357 -105.29868 35844 ft 360 kts 272°
2026-05-05 16:07 31.66334 -105.35645 35832 ft 361 kts 272°
2026-05-05 16:07 31.67308 -105.41422 35840 ft 360 kts 272°
2026-05-05 16:08 31.68274 -105.47170 35840 ft 361 kts 272°
2026-05-05 16:08 31.69242 -105.52951 35833 ft 361 kts 272°
2026-05-05 16:09 31.70211 -105.58746 35830 ft 361 kts 272°
2026-05-05 16:09 31.71174 -105.64522 35847 ft 361 kts 271°
2026-05-05 16:10 31.72135 -105.70307 35842 ft 361 kts 271°
2026-05-05 16:10 31.73095 -105.76101 35838 ft 361 kts 271°
2026-05-05 16:11 31.74053 -105.81905 35838 ft 362 kts 271°
2026-05-05 16:12 31.75962 -105.93508 35842 ft 363 kts 271°
2026-05-05 16:13 31.78349 -106.08119 35903 ft 364 kts 271°
2026-05-05 16:13 31.79298 -106.13958 35937 ft 363 kts 271°
2026-05-05 16:14 31.81176 -106.25563 36001 ft 361 kts 271°
2026-05-05 16:15 31.82812 -106.37159 36015 ft 359 kts 269°
2026-05-05 16:16 31.84297 -106.48769 36012 ft 358 kts 269°
2026-05-05 16:17 31.85416 -106.57441 36024 ft 359 kts 269°
2026-05-05 16:18 31.86540 -106.66159 36034 ft 359 kts 269°
2026-05-05 16:19 31.87657 -106.74864 36043 ft 359 kts 269°
2026-05-05 16:19 31.88768 -106.83583 36020 ft 359 kts 269°
2026-05-05 16:20 31.89507 -106.89400 35834 ft 359 kts 269°
2026-05-05 16:20 31.90243 -106.95221 35835 ft 360 kts 269°
2026-05-05 16:22 31.92070 -107.09763 35850 ft 361 kts 269°
2026-05-05 16:23 31.93527 -107.21462 35861 ft 360 kts 269°
2026-05-05 16:23 31.94604 -107.30165 35846 ft 360 kts 269°
2026-05-05 16:24 31.95321 -107.35990 35860 ft 359 kts 269°
2026-05-05 16:25 31.96391 -107.44729 35859 ft 359 kts 269°
2026-05-05 16:25 31.97457 -107.53477 35879 ft 359 kts 269°
2026-05-05 16:26 31.98860 -107.65072 35916 ft 358 kts 269°
2026-05-05 16:27 31.99559 -107.70885 35921 ft 358 kts 268°
2026-05-05 16:27 32.00255 -107.76696 35941 ft 358 kts 268°
2026-05-05 16:28 32.00950 -107.82521 35867 ft 358 kts 268°
2026-05-05 16:28 32.01640 -107.88331 35868 ft 358 kts 268°
2026-05-05 16:29 32.02323 -107.94099 35868 ft 357 kts 268°
2026-05-05 16:29 32.03008 -107.99900 35871 ft 357 kts 268°
2026-05-05 16:30 32.03688 -108.05698 35872 ft 357 kts 268°
2026-05-05 16:30 32.04365 -108.11490 35872 ft 357 kts 268°
2026-05-05 16:31 32.05042 -108.17295 35871 ft 357 kts 268°
2026-05-05 16:31 32.05714 -108.23085 35875 ft 357 kts 268°
2026-05-05 16:32 32.06384 -108.28887 35876 ft 357 kts 268°
2026-05-05 16:32 32.07048 -108.34667 35873 ft 358 kts 268°
2026-05-05 16:33 32.07715 -108.40481 35877 ft 358 kts 268°
2026-05-05 16:33 32.08379 -108.46301 35923 ft 358 kts 268°
2026-05-05 16:34 32.09041 -108.52119 35928 ft 357 kts 268°
2026-05-05 16:34 32.09698 -108.57913 35953 ft 355 kts 268°
2026-05-05 16:35 32.10347 -108.63672 35963 ft 353 kts 268°
2026-05-05 16:35 32.10991 -108.69405 35967 ft 352 kts 268°
2026-05-05 16:36 32.11627 -108.75098 35880 ft 351 kts 268°
2026-05-05 16:36 32.12262 -108.80810 35891 ft 351 kts 267°
2026-05-05 16:37 32.12895 -108.86526 35881 ft 351 kts 267°
2026-05-05 16:37 32.13525 -108.92231 35883 ft 350 kts 267°
2026-05-05 16:38 32.14151 -108.97926 35878 ft 350 kts 267°
2026-05-05 16:38 32.14774 -109.03625 35884 ft 350 kts 267°
2026-05-05 16:39 32.15396 -109.09341 35883 ft 351 kts 267°
2026-05-05 16:39 32.16014 -109.15027 35896 ft 352 kts 267°
2026-05-05 16:40 32.16633 -109.20751 35891 ft 352 kts 267°
2026-05-05 16:40 32.17250 -109.26487 35894 ft 352 kts 267°
2026-05-05 16:41 32.18073 -109.32234 35901 ft 360 kts 272°
2026-05-05 16:41 32.19325 -109.37980 35892 ft 362 kts 273°
2026-05-05 16:42 32.20604 -109.43719 35902 ft 361 kts 273°
2026-05-05 16:42 32.21846 -109.49442 35890 ft 359 kts 273°
2026-05-05 16:43 32.23058 -109.55140 35908 ft 357 kts 273°
2026-05-05 16:43 32.24267 -109.60842 35914 ft 359 kts 273°
2026-05-05 16:44 32.25266 -109.65606 35905 ft 361 kts 272°
2026-05-05 16:44 32.26676 -109.72323 35916 ft 363 kts 272°
2026-05-05 16:45 32.27688 -109.77168 35907 ft 362 kts 272°
2026-05-05 16:45 32.28885 -109.82896 35920 ft 360 kts 272°
2026-05-05 16:46 32.30081 -109.88635 35923 ft 359 kts 272°
2026-05-05 16:46 32.31269 -109.94356 35934 ft 357 kts 272°
2026-05-05 16:47 32.32450 -110.00052 35967 ft 356 kts 272°
2026-05-05 16:47 32.33624 -110.05731 35938 ft 355 kts 272°
2026-05-05 16:48 32.34800 -110.11444 35630 ft 362 kts 272°
2026-05-05 16:48 32.35395 -110.14343 35409 ft 362 kts 272°
2026-05-05 16:48 32.35990 -110.17238 35174 ft 362 kts 272°
2026-05-05 16:49 32.36587 -110.20146 34939 ft 364 kts 272°
2026-05-05 16:49 32.37176 -110.23020 34733 ft 365 kts 272°
2026-05-05 16:49 32.37775 -110.25944 34493 ft 366 kts 272°
2026-05-05 16:49 32.38375 -110.28870 34277 ft 366 kts 272°
2026-05-05 16:50 32.38975 -110.31797 34039 ft 366 kts 272°
2026-05-05 16:50 32.39571 -110.34717 33798 ft 365 kts 272°
2026-05-05 16:50 32.40166 -110.37632 33527 ft 363 kts 272°
2026-05-05 16:50 32.40757 -110.40526 33259 ft 360 kts 272°
2026-05-05 16:51 32.41342 -110.43389 32804 ft 354 kts 272°
2026-05-05 16:51 32.41915 -110.46193 32321 ft 348 kts 272°
2026-05-05 16:51 32.42477 -110.48960 31894 ft 343 kts 272°
2026-05-05 16:51 32.43030 -110.51689 31425 ft 339 kts 272°
2026-05-05 16:52 32.43573 -110.54380 30987 ft 334 kts 272°
2026-05-05 16:52 32.44110 -110.57042 30533 ft 331 kts 272°
2026-05-05 16:52 32.44640 -110.59681 30096 ft 328 kts 272°
2026-05-05 16:52 32.45166 -110.62303 29590 ft 328 kts 272°
2026-05-05 16:53 32.45695 -110.64940 29074 ft 329 kts 272°
2026-05-05 16:53 32.46225 -110.67569 28596 ft 326 kts 272°
2026-05-05 16:53 32.46794 -110.70159 28107 ft 327 kts 277°
2026-05-05 16:53 32.47776 -110.72634 27694 ft 337 kts 288°
2026-05-05 16:54 32.49019 -110.74947 27312 ft 338 kts 290°
2026-05-05 16:54 32.50363 -110.77253 26880 ft 342 kts 290°
2026-05-05 16:54 32.51732 -110.79580 26559 ft 348 kts 293°
2026-05-05 16:54 32.53171 -110.81909 26082 ft 349 kts 292°
2026-05-05 16:55 32.54536 -110.84274 25643 ft 347 kts 291°
2026-05-05 16:55 32.55875 -110.86643 25252 ft 345 kts 291°
2026-05-05 16:55 32.57210 -110.89002 24854 ft 343 kts 291°
2026-05-05 16:55 32.58543 -110.91343 24455 ft 342 kts 292°
2026-05-05 16:56 32.59875 -110.93677 24049 ft 341 kts 292°
2026-05-05 16:56 32.61200 -110.95995 23647 ft 337 kts 292°
2026-05-05 16:56 32.62508 -110.98281 23181 ft 332 kts 292°
2026-05-05 16:56 32.63797 -111.00537 22749 ft 327 kts 292°
2026-05-05 16:57 32.65048 -111.02734 22373 ft 324 kts 292°
2026-05-05 16:57 32.66308 -111.04950 22007 ft 323 kts 293°
2026-05-05 16:57 32.67564 -111.07165 21615 ft 324 kts 293°
2026-05-05 16:57 32.68823 -111.09384 21236 ft 325 kts 294°
2026-05-05 16:58 32.70089 -111.11616 20840 ft 327 kts 294°
2026-05-05 16:58 32.71365 -111.13865 20460 ft 328 kts 294°
2026-05-05 16:58 32.72644 -111.16119 20074 ft 329 kts 294°
2026-05-05 16:58 32.73924 -111.18374 19676 ft 329 kts 294°
2026-05-05 16:59 32.75204 -111.20631 19287 ft 330 kts 295°
2026-05-05 16:59 32.76484 -111.22892 18902 ft 329 kts 295°
2026-05-05 16:59 32.77755 -111.25135 18532 ft 325 kts 295°
2026-05-05 16:59 32.79012 -111.27355 18083 ft 321 kts 295°
2026-05-05 17:00 32.80252 -111.29545 17650 ft 318 kts 295°
2026-05-05 17:00 32.81480 -111.31717 17252 ft 315 kts 295°
2026-05-05 17:00 32.82695 -111.33872 16896 ft 312 kts 295°
2026-05-05 17:00 32.83900 -111.36013 16568 ft 313 kts 295°
2026-05-05 17:01 32.85097 -111.38144 16220 ft 316 kts 296°
2026-05-05 17:01 32.86327 -111.40331 15828 ft 320 kts 296°
2026-05-05 17:01 32.87571 -111.42540 15437 ft 323 kts 296°
2026-05-05 17:01 32.88823 -111.44766 15057 ft 325 kts 296°
2026-05-05 17:02 32.90078 -111.46991 14669 ft 321 kts 297°
2026-05-05 17:02 32.91625 -111.48939 14275 ft 329 kts 317°
2026-05-05 17:02 32.93673 -111.50211 13909 ft 333 kts 330°
2026-05-05 17:02 32.95818 -111.51241 13490 ft 330 kts 332°
2026-05-05 17:03 32.97946 -111.52228 13069 ft 327 kts 333°
2026-05-05 17:03 33.00053 -111.53217 12664 ft 323 kts 332°
2026-05-05 17:03 33.02128 -111.54211 12283 ft 320 kts 332°
2026-05-05 17:03 33.04176 -111.55205 11890 ft 316 kts 332°
2026-05-05 17:04 33.06192 -111.56187 11507 ft 308 kts 333°
2026-05-05 17:04 33.08120 -111.57129 11200 ft 298 kts 333°
2026-05-05 17:04 33.10018 -111.58065 10870 ft 294 kts 333°
2026-05-05 17:04 33.11902 -111.58999 10533 ft 293 kts 333°
2026-05-05 17:05 33.13781 -111.59932 10194 ft 292 kts 333°
2026-05-05 17:05 33.15659 -111.60861 9853 ft 292 kts 334°
2026-05-05 17:05 33.17539 -111.61792 9473 ft 293 kts 333°
2026-05-05 17:05 33.19414 -111.62721 9108 ft 290 kts 334°
2026-05-05 17:06 33.21271 -111.63638 8779 ft 286 kts 334°
2026-05-05 17:06 33.23083 -111.64539 8433 ft 278 kts 332°
2026-05-05 17:06 33.24815 -111.65508 8097 ft 271 kts 330°
2026-05-05 17:06 33.26475 -111.66485 7778 ft 263 kts 329°
2026-05-05 17:07 33.28079 -111.67437 7476 ft 256 kts 329°
2026-05-05 17:07 33.29653 -111.68368 7193 ft 249 kts 329°
2026-05-05 17:07 33.31188 -111.69271 6907 ft 242 kts 330°
2026-05-05 17:07 33.32678 -111.70147 6657 ft 233 kts 329°
2026-05-05 17:08 33.34097 -111.70977 6381 ft 222 kts 330°
2026-05-05 17:08 33.35444 -111.71766 6106 ft 210 kts 330°
2026-05-05 17:08 33.36729 -111.72517 5861 ft 201 kts 330°
2026-05-05 17:08 33.37959 -111.73238 5584 ft 198 kts 330°
2026-05-05 17:09 33.39198 -111.73963 5350 ft 198 kts 330°
2026-05-05 17:09 33.40364 -111.74778 5096 ft 191 kts 311°
2026-05-05 17:09 33.41121 -111.76031 4894 ft 186 kts 300°
2026-05-05 17:09 33.41847 -111.77336 4689 ft 190 kts 300°
2026-05-05 17:10 33.42582 -111.78651 4446 ft 187 kts 300°
2026-05-05 17:10 33.43289 -111.79922 4231 ft 180 kts 300°
2026-05-05 17:10 33.43905 -111.81198 4018 ft 173 kts 282°
2026-05-05 17:10 33.44009 -111.82566 3848 ft 162 kts 271°
2026-05-05 17:11 33.44061 -111.83895 3642 ft 158 kts 269°
2026-05-05 17:11 33.44077 -111.85220 3448 ft 160 kts 267°
2026-05-05 17:11 33.44079 -111.86494 3223 ft 147 kts 268°
2026-05-05 17:11 33.44080 -111.87667 3028 ft 136 kts 267°
2026-05-05 17:12 33.44080 -111.88786 2838 ft 133 kts 266°
2026-05-05 17:12 33.44079 -111.89867 2691 ft 130 kts 267°
2026-05-05 17:12 33.44079 -111.90964 2519 ft 134 kts 267°
2026-05-05 17:12 33.44079 -111.92072 2338 ft 130 kts 267°
2026-05-05 17:13 33.44079 -111.93167 2186 ft 134 kts 269°
2026-05-05 17:13 33.44088 -111.94293 2038 ft 134 kts 268°
2026-05-05 17:13 33.44081 -111.95372 1864 ft 129 kts 267°
2026-05-05 17:13 33.44075 -111.96444 1701 ft 126 kts 269°
2026-05-05 17:14 33.44091 -111.97483 1482 ft 123 kts 269°
2026-05-05 17:14 33.44084 -111.98506 1278 ft 123 kts 271°
2026-05-05 17:14 33.44087 -111.99541 1142 ft 121 kts 269°
2026-05-05 17:14 33.44084 -112.00438 1127 ft 91 kts 271°
2026-05-05 17:15 33.44084 -112.01048 1129 ft 56 kts 270°
2026-05-05 17:15 33.44051 -112.01355 1132 ft 20 kts 231°
2026-05-05 17:15 33.44020 -112.01386 1124 ft 2 kts 218°
2026-05-05 17:15 33.43978 -112.01423 1121 ft 8 kts 209°
2026-05-05 17:16 33.43920 -112.01428 1119 ft 9 kts 153°
2026-05-05 17:16 33.43901 -112.01362 1124 ft 9 kts 87°
2026-05-05 17:16 33.43903 -112.01290 1124 ft 9 kts 92°
2026-05-05 17:16 33.43900 -112.01220 1124 ft 8 kts 90°
2026-05-05 17:17 33.43901 -112.01153 1124 ft 8 kts 90°
2026-05-05 17:17 33.43902 -112.01078 1124 ft 12 kts 91°
2026-05-05 17:17 33.43904 -112.00936 1124 ft 20 kts 86°
2026-05-05 17:17 33.43901 -112.00770 1124 ft 20 kts 90°
2026-05-05 17:18 33.43901 -112.00647 1124 ft 12 kts 90°
2026-05-05 17:18 33.43901 -112.00558 1124 ft 9 kts 90°
2026-05-05 17:18 33.43901 -112.00527 1124 ft 2 kts 91°
2026-05-05 17:18 33.43903 -112.00456 1124 ft 12 kts 87°
2026-05-05 17:19 33.43862 -112.00380 1117 ft 12 kts 173°
2026-05-05 17:19 33.43778 -112.00380 1119 ft 12 kts 180°
2026-05-05 17:19 33.43695 -112.00379 1119 ft 12 kts 180°
2026-05-05 17:19 33.43603 -112.00380 1121 ft 17 kts 180°
2026-05-05 17:20 33.43474 -112.00379 1119 ft 19 kts 181°
2026-05-05 17:20 33.43368 -112.00379 1120 ft 13 kts 180°
2026-05-05 17:20 33.43294 -112.00361 1118 ft 11 kts 135°
2026-05-05 17:20 33.43283 -112.00273 1119 ft 11 kts 90°
2026-05-05 17:21 33.43284 -112.00160 1124 ft 15 kts 91°
2026-05-05 17:21 33.43283 -112.00037 1122 ft 14 kts 90°
2026-05-05 17:21 33.43283 -111.99928 1114 ft 11 kts 90°
2026-05-05 17:22 33.43340 -111.99848 1122 ft 9 kts 327°
2026-05-05 17:22 33.43370 -111.99872 1119 ft 2 kts 327°
2026-05-05 17:22 33.43374 -111.99875 1120 ft 0 kts 327°